Time,TemperatureF,DewpointF,PressureIn,WindDirection,WindDirectionDegrees,WindSpeedMPH,WindSpeedGustMPH,Humidity,HourlyPrecipIn,Conditions,Clouds,dailyrainin,SoftwareType,DateUTC
2015-02-27 00:12:00,34.0,24.0,30.35,North,5,2.0,7.0,66,0.00,,,0.01,,2015-02-27 06:12:00,
2015-02-27 00:22:00,34.0,24.0,30.35,North,358,3.0,7.0,66,0.00,,,0.01,,2015-02-27 06:22:00,
2015-02-27 00:42:00,34.0,23.0,30.35,North,6,2.0,8.0,65,0.00,,,0.01,,2015-02-27 06:42:00,
2015-02-27 00:53:00,34.0,24.0,30.35,North,7,3.0,8.0,66,0.00,,,0.01,,2015-02-27 06:53:00,
2015-02-27 01:12:00,34.0,23.0,30.35,North,7,2.0,8.0,65,0.00,,,0.01,,2015-02-27 07:12:00,
2015-02-27 01:23:00,34.0,24.0,30.37,North,2,2.0,8.0,66,0.00,,,0.01,,2015-02-27 07:23:00,
2015-02-27 01:42:00,34.0,23.0,30.37,NNE,27,2.0,5.0,65,0.00,,,0.01,,2015-02-27 07:42:00,
2015-02-27 01:52:00,33.0,21.0,30.35,NNE,33,3.0,9.0,62,0.00,,,0.01,,2015-02-27 07:52:00,
2015-02-27 02:22:00,32.0,20.0,30.36,NNE,33,2.0,7.0,62,0.00,,,0.01,,2015-02-27 08:22:00,
2015-02-27 02:42:00,32.0,20.0,30.35,NNE,28,2.0,6.0,62,0.00,,,0.01,,2015-02-27 08:42:00,
2015-02-27 02:52:00,32.0,21.0,30.35,NNE,28,3.0,6.0,64,0.00,,,0.01,,2015-02-27 08:52:00,
2015-02-27 03:22:00,31.0,21.0,30.34,NNE,30,2.0,6.0,65,0.00,,,0.01,,2015-02-27 09:22:00,
2015-02-27 03:43:00,31.0,21.0,30.34,NNE,29,3.0,7.0,66,0.00,,,0.01,,2015-02-27 09:43:00,
2015-02-27 03:52:00,31.0,21.0,30.33,NNE,31,3.0,7.0,67,0.00,,,0.01,,2015-02-27 09:52:00,
2015-02-27 04:13:00,30.0,20.0,30.33,NNE,25,3.0,7.0,67,0.00,,,0.01,,2015-02-27 10:13:00,
2015-02-27 04:23:00,30.0,20.0,30.33,NNE,27,3.0,6.0,67,0.00,,,0.01,,2015-02-27 10:23:00,
2015-02-27 04:43:00,30.0,20.0,30.33,NE,34,2.0,5.0,66,0.00,,,0.01,,2015-02-27 10:43:00,
2015-02-27 04:52:00,30.0,20.0,30.33,NNE,32,2.0,7.0,66,0.00,,,0.01,,2015-02-27 10:52:00,
2015-02-27 05:12:00,30.0,20.0,30.33,NE,35,2.0,5.0,67,0.00,,,0.01,,2015-02-27 11:12:00,
2015-02-27 05:23:00,30.0,21.0,30.33,NNE,29,2.0,9.0,68,0.00,,,0.01,,2015-02-27 11:23:00,
2015-02-27 05:42:00,30.0,21.0,30.33,NNE,27,3.0,9.0,68,0.00,,,0.01,,2015-02-27 11:42:00,